User: anonymous   Login
Location: Pedholt
(56.0260°N, 10.2097°E)
Time: 18:38:28
(UTC+00:00)
Language:

Transit 2A - Orbit

View from above orbital plane
View from above orbital plane
View from above satellite
View from above satellite

Ground track
Ground track

The orbit data is extracted from the following two-line orbital elements,

1 00045U 60007A   21207.56224688 -.00000068  00000-0  98770-5 0  9996
2 00045  66.6950  35.9564 0252657  19.8803 341.1928 14.33728011123768
Epoch (UTC): 26 July 2021 13:29:38
Eccentricity: 0.0252657
inclination: 66.6950°
perigee height: 598 km
apogee height: 960 km
right ascension of ascending node: 35.9564°
argument of perigee: 19.8803°
revolutions per day: 14.33728011
mean anomaly at epoch: 341.1928°
orbit number at epoch: 12376

The dashed part of the orbit path shows where the satellite is in the earth's shadow,  

DLR